CW1490 Weather Reports


Display with metric or nautical units.
time (UTC)temp
F
wind
direction
speed
MPH
gust
MPH
rain 1hr
in
rain 24hr
in
rain mn
in
humidity
%
barometer
mb
20141218205750 37 272 1.0 6.0 0.00 0.00 0.00 74 1010.2
20141218204250 37 285 1.0 6.0 0.00 0.00 0.00 73 1010.1
20141218202749 38 327 1.0 7.0 0.00 0.00 0.00 73 1010.0
20141218201248 38 280 0.0 10.0 0.00 0.00 0.00 73 1009.8
20141218195848 38 282 3.0 7.0 0.00 0.00 0.00 71 1009.7
20141218194246 39 301 3.0 8.0 0.00 0.00 0.00 70 1009.6
20141218192744 39 294 3.0 12.0 0.00 0.00 0.00 70 1009.4
20141218191244 39 307 5.0 11.0 0.00 0.00 0.00 70 1009.3
20141218185743 40 293 6.0 14.0 0.00 0.00 0.00 68 1009.0
20141218184241 41 319 4.0 10.0 0.00 0.00 0.00 67 1008.9
20141218182738 40 345 2.0 5.0 0.00 0.00 0.00 69 1008.8
20141218181236 39 333 0.0 3.0 0.00 0.00 0.00 71 1008.7
20141218175732 39 34 4.0 11.0 0.00 0.00 0.00 71 1008.9
20141218174228 39 355 2.0 14.0 0.00 0.00 0.00 71 1009.0
20141218172723 39 303 5.0 14.0 0.00 0.00 0.00 72 1009.2
20141218171220 38 315 4.0 10.0 0.00 0.00 0.00 72 1009.3
20141218165716 39 350 6.0 11.0 0.00 0.00 0.00 72 1009.4
20141218164212 39 355 3.0 10.0 0.00 0.00 0.00 71 1009.6
20141218162709 39 1 3.0 13.0 0.00 0.00 0.00 71 1009.7
20141218161209 39 334 4.0 14.0 0.00 0.00 0.00 72 1009.8
20141218155705 38 328 4.0 14.0 0.00 0.00 0.00 72 1009.8
20141218154200 38 323 6.0 13.0 0.00 0.00 0.00 72 1009.8
20141218152657 38 323 2.0 10.0 0.00 0.00 0.00 73 1009.8
20141218151156 38 28 4.0 9.0 0.00 0.00 0.00 73 1009.8
20141218145654 38 312 5.0 12.0 0.00 0.06 0.00 73 1009.8
20141218144152 38 334 4.0 12.0 0.00 0.06 0.00 73 1009.8
20141218142649 38 336 5.0 14.0 0.00 0.06 0.00 75 1009.6
20141218141147 38 321 5.0 10.0 0.00 0.06 0.00 75 1009.5
20141218135645 37 306 3.0 12.0 0.00 0.16 0.00 76 1009.3
20141218134142 37 302 5.0 13.0 0.00 0.16 0.00 76 1009.1
20141218132639 37 313 0.0 10.0 0.00 0.16 0.00 77 1009.0
20141218131136 37 307 3.0 11.0 0.00 0.16 0.00 77 1008.8
20141218125633 37 2 6.0 12.0 0.00 0.17 0.00 77 1008.7
20141218124230 37 305 3.0 14.0 0.00 0.17 0.00 77 1008.5
20141218122628 37 9 1.0 10.0 0.00 0.17 0.00 77 1008.4
20141218121123 37 319 1.0 13.0 0.00 0.17 0.00 77 1008.1
20141218115621 37 48 2.0 5.0 0.00 0.19 0.00 77 1007.9
20141218114120 37 289 2.0 10.0 0.00 0.19 0.00 77 1007.8
20141218112618 37 49 1.0 15.0 0.00 0.19 0.00 77 1007.7
20141218111118 37 329 3.0 10.0 0.00 0.19 0.00 78 1007.6
20141218105617 37 14 1.0 5.0 0.00 0.22 0.00 79 1007.5
20141218104114 37 326 2.0 13.0 0.00 0.22 0.00 78 1007.3
20141218102613 37 305 3.0 9.0 0.00 0.22 0.00 79 1007.2
20141218101111 37 296 5.0 12.0 0.00 0.22 0.00 79 1007.1
20141218095611 37 14 2.0 8.0 0.00 0.27 0.00 80 1007.0
20141218094109 37 359 3.0 9.0 0.00 0.27 0.00 81 1006.9
20141218092608 36 323 3.0 10.0 0.00 0.27 0.00 83 1006.8
20141218091104 35 311 2.0 8.0 0.00 0.27 0.00 89 1006.8
20141218085602 35 20 0.0 5.0 0.00 0.32 0.00 91 1006.8
20141218084100 34 229 0.0 1.0 0.00 0.32 0.00 94 1006.9
20141218082559 34 229 1.0 6.0 0.00 0.32 0.00 95 1006.9
20141218081059 34 153 0.0 5.0 0.00 0.32 0.00 95 1007.0
20141218075558 33 315 1.0 6.0 0.00 0.32 0.00 96 1007.0
20141218074057 33 209 0.0 3.0 0.00 0.32 0.00 95 1007.2
20141218072557 33 199 1.0 3.0 0.00 0.32 0.00 95 1007.2
20141218071056 34 199 0.0 3.0 0.00 0.32 0.00 95 1007.0
20141218065556 34 180 0.0 4.0 0.00 0.34 0.00 95 1007.0
20141218064054 34 239 0.0 1.0 0.00 0.34 0.00 95 1006.9
20141218062854 35 215 2.0 6.0 0.00 0.34 0.00 96 1006.8
20141218061051 33 228 2.0 4.0 0.00 0.34 0.00 96 1006.8
20141218055550 33 164 0.0 6.0 0.00 0.39 0.00 96 1006.8
20141218054048 33 242 0.0 0.0 0.00 0.39 0.00 96 1006.9
20141218052546 34 242 0.0 0.0 0.00 0.39 0.00 96 1007.0
20141218051043 34 236 2.0 4.0 0.00 0.39 0.00 96 1007.2
20141218045540 34 202 0.0 3.0 0.00 0.49 0.39 96 1007.3
20141218044040 34 202 0.0 3.0 0.00 0.49 0.39 96 1007.2
20141218042539 35 57 0.0 3.0 0.00 0.49 0.39 96 1007.3
20141218041039 34 329 0.0 4.0 0.00 0.49 0.39 96 1007.6
20141218035539 35 303 1.0 5.0 0.00 0.51 0.39 97 1007.7
20141218034038 34 240 0.0 3.0 0.00 0.51 0.39 97 1007.8
20141218032537 35 124 3.0 4.0 0.00 0.51 0.39 97 1007.9
20141218031037 35 199 1.0 3.0 0.00 0.51 0.39 97 1007.9
20141218025536 35 261 3.0 4.0 0.00 0.52 0.39 97 1007.9
20141218024036 34 267 0.0 3.0 0.00 0.52 0.39 97 1007.8
20141218022536 35 269 0.0 3.0 0.00 0.52 0.39 97 1007.9
20141218021035 35 173 0.0 2.0 0.00 0.52 0.39 97 1007.7
20141218015535 35 32 1.0 3.0 0.00 0.54 0.39 97 1007.5
20141218014035 35 32 0.0 0.0 0.00 0.54 0.39 97 1007.6
20141218012534 35 32 0.0 2.0 0.00 0.54 0.39 97 1007.6
20141218011033 35 32 0.0 1.0 0.00 0.54 0.39 97 1007.6
20141218005533 36 32 0.0 0.0 0.00 0.54 0.39 97 1007.6
20141218004032 36 345 2.0 4.0 0.00 0.54 0.39 97 1007.8
20141218002532 36 118 0.0 3.0 0.00 0.54 0.39 97 1007.9
20141218001031 36 227 1.0 6.0 0.00 0.54 0.39 97 1007.7
20141217235531 36 178 2.0 5.0 0.00 0.54 0.39 97 1007.7
20141217234031 36 204 0.0 4.0 0.00 0.54 0.39 97 1007.7
20141217232531 36 241 1.0 5.0 0.00 0.54 0.39 97 1007.8
20141217231230 36 268 1.0 6.0 0.00 0.54 0.39 97 1007.7
20141217225530 36 230 3.0 4.0 0.00 0.54 0.39 97 1007.5
20141217224029 35 167 2.0 4.0 0.00 0.54 0.39 97 1007.5
20141217222528 35 234 2.0 4.0 0.00 0.54 0.39 97 1007.4
20141217221028 36 345 2.0 3.0 0.00 0.54 0.39 97 1007.4
20141217215527 36 23 0.0 3.0 0.00 0.54 0.39 97 1007.3
20141217214027 36 284 0.0 0.0 0.00 0.54 0.39 97 1007.3
20141217212526 36 235 0.0 0.0 0.00 0.54 0.39 96 1007.3
20141217211025 37 235 0.0 0.0 0.00 0.54 0.39 96 1007.2